Location: Degersen
(52.2871°N, 9.5716°E)
Time: 20:29:59
(UTC+00:00)

SJ-11-01 - Visible Passes

Search period start: 15 April 2026 00:00
Search period end: 25 April 2026 00:00
Orbit: 675 x 688 km, 98.0° (Epoch: 15 April)

Date Brightness Start Highest point End Pass type
(mag) Time Alt. Az. Time Alt. Az. Time Alt. Az.
15 Apr 7.3 02:31:48 10° ENE 02:33:12 11° E 02:34:36 10° ESE visible
16 Apr 6.7 03:06:15 10° NE 03:09:56 23° E 03:13:36 10° SE visible
17 Apr 5.5 03:41:59 10° NNE 03:46:29 45° E 03:50:56 10° S visible
18 Apr 7.1 02:42:18 10° NE 02:44:49 14° E 02:47:17 10° ESE visible
19 Apr 6.4 03:17:27 10° NE 03:21:29 28° E 03:25:28 10° SSE visible
21 Apr 7.0 02:53:14 10° NE 02:56:24 18° E 02:59:32 10° SE visible
22 Apr 6.0 03:28:43 10° NNE 03:33:01 35° E 03:37:14 10° SSE visible
23 Apr 7.4 02:30:05 10° ENE 02:31:12 11° E 02:32:19 10° E visible
24 Apr 6.8 03:04:19 10° NE 03:07:57 22° E 03:11:33 10° SE visible
